sat.trackr.live / text

‹ back to catalog

STARLINK-6312

NORAD 56536 · 2023-065AK

PAYLOAD ACTIVE UNKNOWN

§ Identity

Operator
Country
US
Launch date
2023-05-14
Launch site
AFETR
Launch vehicle
Mass (kg)
RCS (m²)

Purposes: comms

External: N2YO · Heavens-Above · Gunter

§ Orbital elements

Epoch: 2026-05-25T01:23:08.484576Z

Period
94.27 min
Inclination
43.0018°
Eccentricity
0.0001124
Mean motion
15.27574573 rev/d
Perigee alt
482.3 km
Apogee alt
483.8 km
Semi-major
6,861.2 km
B*
2.0485e-5
RAAN
155.5387°
Arg perigee
274.5681°
Mean anomaly
85.5042°
Rev number
16,811

§ Raw data

STARLINK-63121 56536U 23065AK  26145.05773709  .00000302  00000+0  20485-4 0  99942 56536  43.0018 155.5387 0001124 274.5681  85.5042 15.27574573168115

JSON: /api/v1/satellites/56536 · /tle

For live sub-satellite position, see the globe view (requires WebGL).

§ Visibility from observer

Set your observer location to see the next 7 days of passes ≥ 10°. The values pass through the URL so the page stays shareable.

No JS? Fill the form by hand. The geolocation button needs JavaScript.